Printer-friendly version

IAU Minor Planet Center

Minor Planet Center

MPEC 2003-G13 : COMET C/2002 Y1 (JUELS-HOLVORCEM)

The following Minor Planet Electronic Circular may be linked-to from your own Web pages, but must not otherwise be redistributed electronically.


Read MPEC 2003-G12 Read MPEC 2003-G14


M.P.E.C. 2003-G13                                Issued 2003 Apr. 3, 15:14 UT

     The Minor Planet Electronic Circulars contain information on unusual
         minor planets and routine data on comets.  They are published
   on behalf of Commission 20 of the International Astronomical Union by the
          Minor Planet Center, Smithsonian Astrophysical Observatory,
                          Cambridge, MA 02138, U.S.A.

             Prepared using the Tamkin Foundation Computer Network

                              MPC@CFA.HARVARD.EDU
          URL http://cfa-www.harvard.edu/iau/mpc.html  ISSN 1523-6714

                       COMET C/2002 Y1 (JUELS-HOLVORCEM)

Observations:
    CK02Y010  C2003 03 04.15512 21 49 06.17 +55 55 27.9                      204
    CK02Y010  C2003 03 04.15611 21 49 06.75 +55 55 25.3                      204
    CK02Y010  C2003 03 04.15708 21 49 07.32 +55 55 22.7                      204
    CK02Y010  C2003 03 04.15756 21 49 07.62 +55 55 21.1                      204
    CK02Y010  C2003 03 04.15855 21 49 08.17 +55 55 18.5          13.5 N      204
    CK02Y010  C2003 03 04.15903 21 49 08.49 +55 55 17.3                      204
    CK02Y010  C2003 03 04.16002 21 49 09.03 +55 55 14.6                      204
    CK02Y010  C2003 03 04.16050 21 49 09.31 +55 55 13.2                      204
    CK02Y010  C2003 03 04.16149 21 49 09.88 +55 55 10.6                      204
    CK02Y010  C2003 03 04.16197 21 49 10.17 +55 55 09.3                      204
    CK02Y010  C2003 03 04.16295 21 49 10.75 +55 55 06.5                      204
    CK02Y010  C2003 03 04.16344 21 49 11.03 +55 55 05.2                      204
    CK02Y010  C2003 03 15.76736 23 08 44.63 +46 22 59.2          11.0 N      235
    CK02Y010  C2003 03 16.17817 23 10 40.84 +46 02 51.6          12   N      204
    CK02Y010  C2003 03 16.17865 23 10 40.98 +46 02 50.0                      204
    CK02Y010  C2003 03 16.17915 23 10 41.10 +46 02 48.7                      204
    CK02Y010  C2003 03 16.17964 23 10 41.25 +46 02 47.2                      204
    CK02Y010  C2003 03 16.18012 23 10 41.41 +46 02 45.8                      204
    CK02Y010  C2003 03 16.18062 23 10 41.52 +46 02 44.3                      204
    CK02Y010  C2003 03 16.18111 23 10 41.65 +46 02 42.9                      204
    CK02Y010  C2003 03 16.18208 23 10 41.93 +46 02 40.0                      204
    CK02Y010  C2003 03 16.18258 23 10 42.07 +46 02 38.5                      204
    CK02Y010  C2003 03 16.18307 23 10 42.21 +46 02 37.1                      204
    CK02Y010  C2003 03 16.18356 23 10 42.35 +46 02 35.7                      204
    CK02Y010  C2003 03 16.18405 23 10 42.48 +46 02 34.3                      204
    CK02Y010  C2003 03 16.18454 23 10 42.60 +46 02 32.9                      204
    CK02Y010  C2003 03 16.18503 23 10 42.75 +46 02 31.4                      204
    CK02Y010  C2003 03 19.75867 23 25 42.46 +43 10 14.5          10.4 N      235
    CK02Y010  C2003 03 21.83258 23 33 15.54 +41 32 42.5          10.9 N      A18
    CK02Y010  C2003 03 21.83551 23 33 16.31 +41 32 33.7          10.9 N      A18
    CK02Y010  C2003 03 22.77427 23 36 27.00 +40 49 00.8          10.7 N      235
    CK02Y010  C2003 03 22.79652 23 36 31.42 +40 47 58.2           9.2 N      A18
    CK02Y010  C2003 03 22.80322 23 36 32.76 +40 47 40.3           9.2 N      A18
    CK02Y010  C2003 03 22.80906 23 36 33.84 +40 47 23.8           9.1 N      A18

Observer details:
204 Schiaparelli Observatory.  Observer L. Buzzi.  0.60-m f/4.64 Newtonian
    + CCD.
235 CAST Observatory, Talmassons.  Observers R. Ligustri, V. Savani,
    P. Beltrame, G. Degano.  0.35-m f/5 reflector + CCD.
A18 Herne.  Observer B. Brinkmann.  0.2-m f/5.8 Schmidt-Cassegrain + CCD.

Orbital elements:
    C/2002 Y1 (Juels-Holvorcem)
Epoch 2003 May 1.0 TT = JDT 2452760.5
T 2003 Apr. 13.24840 TT                                 MPC
q   0.7138026            (2000.0)            P               Q
z  +0.0039823      Peri.  128.81676     +0.65300221     +0.72116233
 +/-0.0000205      Node   166.22048     -0.27259222     -0.06117162
e   0.9971575      Incl.  103.78188     +0.70659861     -0.69006009
From 681 observations 2002 Dec. 29-2003 Mar. 22, mean residual 0".54.

     The "original" and "future" barycentric values of 1/a are +0.004113
and +0.004506 (+/- 0.000020) AU**-1, respectively.

Brian G. Marsden             (C) Copyright 2003 MPC           M.P.E.C. 2003-G13

Read MPEC 2003-G12 Read MPEC 2003-G14


Our Web policy. Index to the CBAT/MPC/ICQ pages.


Valid HTML 4.01!